Location: *
(49.5667°N, 1.3667°W)
Time: 15:07:28
(UTC+00:00)

CZ-4C R/B - Pass Details

Date: 20 September 2019
Orbit: 653 x 1349 km, 63.4° (Epoch: 21 October)

Event Time Altitude Azimuth Distance (km) Brightness Sun altitude
Rises 19:51:03 0° 295° (WNW) 3,437 7.2 -17.0°
Reaches altitude 10° 19:53:54 10° 310° (NW) 2,613 5.9 -17.4°
Maximum altitude 19:58:51 24° 3° (N) 1,965 4.3 -18.1°
Drops below altitude 10° 20:04:28 10° 56° (NE) 3,018 4.8 -19.0°
Enters shadow 20:05:29 - 60° (ENE) 3,310 4.9 -19.1°
